Weather reports worldwide

Advertisment
Perpignan, France (7747): temperature & dewpoint: 01.08.2020 03:00:00 - 07.08.2020 03:00:00 (CEST)Perpignan, France (7747): temperature 5cm: 01.08.2020 03:00:00 - 07.08.2020 03:00:00 (CEST)Perpignan, France (7747): temperature -20cm & temperature -100cm: 01.08.2020 03:00:00 - 07.08.2020 03:00:00 (CEST)Perpignan, France (7747): wind speed & gusts: 01.08.2020 03:00:00 - 07.08.2020 03:00:00 (CEST)Perpignan, France (7747): wind direction: 01.08.2020 03:00:00 - 07.08.2020 03:00:00 (CEST)Perpignan, France (7747): reduced air pressure: 01.08.2020 03:00:00 - 07.08.2020 03:00:00 (CEST)Perpignan, France (7747): visibility: 01.08.2020 03:00:00 - 07.08.2020 03:00:00 (CEST)Perpignan, France (7747): precipitation: 01.08.2020 03:00:00 - 07.08.2020 03:00:00 (CEST)
Date & Time tt [°C] td [°C] tt 5cm [°C] tt -20cm [°C] tt -100cm [°C] ff [km/h] ff [kn] fx [km/h] fx [kn] dd ppp [hPa] vv [km] rr [mm]
07.08.2020 03:00:00 19,4 16,2 14,7 30,4 26,9 2 1 9 5 SSW 1017,3 49 0,0
07.08.2020 02:00:00 20,9 17,9 16,9 30,7 26,9 6 3 9 5 NE 1017,4 48 0,0
07.08.2020 01:00:00 21,6 16,5 16,2 31,0 26,9 5 3 12 6 NNE 1017,4 55 0,0
07.08.2020 00:00:00 21,8 10,3 16,4 31,2 26,9 5 3 14 8 NNE 1016,9 60 0,0
06.08.2020 23:00:00 22,8 10,6 16,8 31,4 26,9 9 5 13 7 SW 1016,4 60 0,0
06.08.2020 22:00:00 24,4 10,7 18,5 31,6 26,9 5 3 9 5 NW 1016,0 60 0,0
06.08.2020 21:00:00 26,8 11,3 21,6 31,6 26,9 4 2 11 6 NE 1015,4 60 0,0
06.08.2020 20:00:00 28,7 10,4 28,6 31,5 26,9 6 3 18 10 NNE 1015,2 46 0,0
06.08.2020 19:00:00 29,0 10,2 32,2 31,2 26,9 12 7 31 17 E 1015,2 57 0,0
06.08.2020 18:00:00 29,7 10,8 34,1 30,7 26,9 18 10 29 15 ESE 1015,4 60 0,0
06.08.2020 17:00:00 31,0 10,9 36,6 30,3 26,9 16 9 28 15 E 1015,5 18 0,0
06.08.2020 16:00:00 31,5 10,8 38,3 29,7 26,9 17 9 29 16 E 1015,7 60 0,0
06.08.2020 15:00:00 31,0 9,2 36,2 29,1 26,9 17 9 32 17 ESE 1015,9 60 0,0
06.08.2020 14:00:00 31,0 9,2 39,9 28,6 26,9 16 8 26 14 E 1016,2 60 0,0
06.08.2020 13:00:00 31,4 9,0 41,2 28,2 26,9 13 7 28 15 ESE 1016,4 60 0,0
06.08.2020 12:00:00 30,8 9,1 41,4 28,0 26,9 16 9 26 14 E 1016,5 60 0,0
06.08.2020 11:00:00 30,2 7,4 40,8 28,0 26,9 10 5 20 11 ENE 1016,4 55 0,0
06.08.2020 10:00:00 28,1 6,8 38,2 28,1 26,9 4 2 9 5 NNE 1016,4 58 0,0
06.08.2020 09:00:00 24,2 8,2 22,0 28,4 26,9 3 2 13 7 N 1016,4 60 0,0
06.08.2020 08:00:00 19,9 8,6 13,5 28,6 26,9 6 3 12 7 SW 1016,2 60 0,0
06.08.2020 07:00:00 16,4 7,6 11,8 28,9 26,9 8 5 12 6 WSW 1016,0 60 0,0
06.08.2020 06:00:00 16,5 7,9 12,6 29,2 26,9 7 4 12 6 WSW 1015,6 60 0,0
06.08.2020 05:00:00 19,0 8,0 13,6 29,5 26,9 8 4 19 11 N 1015,3 60 0,0
06.08.2020 04:00:00 18,8 7,9 13,2 29,7 26,9 5 3 16 8 N 1015,3 60 0,0
06.08.2020 03:00:00 19,3 7,7 15,8 30,0 26,9 11 6 18 10 WSW 1015,3 60 0,0
06.08.2020 02:00:00 19,8 7,5 15,9 30,3 26,9 12 7 17 9 WSW 1015,3 60 0,0
06.08.2020 01:00:00 19,9 7,9 14,5 30,6 26,9 13 7 17 9 SW 1015,2 60 0,0
06.08.2020 00:00:00 20,4 7,4 14,9 30,9 26,9 6 3 9 5 SW 1015,1 60 0,0
05.08.2020 23:00:00 21,7 6,8 15,4 31,1 26,9 5 3 13 7 WSW 1014,7 60 0,0
05.08.2020 22:00:00 22,8 6,9 16,9 31,3 26,9 7 4 8 4 WNW 1014,1 60 0,0
05.08.2020 21:00:00 26,3 6,8 22,9 31,3 26,9 6 4 13 7 E 1013,3 60 0,0
05.08.2020 20:00:00 28,8 5,0 28,7 31,1 26,9 9 5 23 12 E 1012,9 60 0,0
05.08.2020 19:00:00 29,6 4,3 32,7 30,8 26,9 14 8 24 13 SE 1012,6 58 0,0
05.08.2020 18:00:00 30,2 4,7 35,3 30,4 26,9 15 8 29 15 ESE 1012,5 20 0,0
05.08.2020 17:00:00 31,0 4,7 36,7 29,9 27,0 16 9 31 17 ESE 1012,6 60 0,0
05.08.2020 16:00:00 30,6 4,3 37,6 29,3 26,9 16 8 33 18 ESE 1013,1 60 0,0
05.08.2020 15:00:00 30,1 4,7 35,8 28,8 26,9 16 9 34 19 ESE 1013,3 60 0,0
05.08.2020 14:00:00 30,3 5,5 39,3 28,3 26,9 19 10 35 19 E 1013,6 60 0,0
05.08.2020 13:00:00 30,4 6,3 44,6 27,9 26,9 14 8 32 17 ENE 1013,8 20 0,0
05.08.2020 12:00:00 29,5 4,2 49,8 27,7 26,9 14 8 36 20 N 1013,9 60 0,0
05.08.2020 11:00:00 28,0 6,1 45,7 27,7 26,9 16 9 37 20 NW 1013,9 45 0,0
05.08.2020 10:00:00 26,4 7,4 34,2 27,8 26,9 17 9 32 18 WNW 1014,4 60 0,0
05.08.2020 09:00:00 24,0 7,2 23,0 28,0 26,9 19 11 32 17 W 1014,3 20 0,0
05.08.2020 08:00:00 21,0 7,6 14,2 28,3 26,9 9 5 20 11 SW 1014,6 51 0,0
05.08.2020 07:00:00 18,3 7,1 12,6 28,5 27,0 9 5 18 10 SW 1014,4 60 0,0
05.08.2020 06:00:00 18,7 6,8 12,6 28,8 26,9 8 4 14 8 SSW 1014,6 60 0,0
05.08.2020 05:00:00 19,9 6,9 14,5 29,0 26,9 6 4 23 12 WNW 1014,8 60 0,0
05.08.2020 04:00:00 21,3 6,8 17,8 29,2 26,9 14 8 33 18 WNW 1014,6 60 0,0
05.08.2020 03:00:00 22,1 6,7 18,4 29,5 26,9 22 12 34 18 WNW 1014,7 60 0,0
05.08.2020 02:00:00 21,3 7,5 17,7 29,8 27,0 18 10 26 14 W 1015,2 60 0,0
05.08.2020 01:00:00 20,7 7,0 17,4 30,0 27,0 17 9 24 13 W 1015,5 60 0,0
05.08.2020 00:00:00 23,0 6,7 20,0 30,3 27,0 15 8 26 14 WNW 1015,5 60 0,0
04.08.2020 23:00:00 24,5 6,7 21,1 30,4 27,0 15 8 40 21 NNW 1015,2 60 0,0
04.08.2020 22:00:00 25,1 7,2 22,4 30,6 27,0 21 11 45 25 NNW 1014,9 60 0,0
04.08.2020 21:00:00 25,7 6,8 24,0 30,6 27,0 22 12 53 29 NNW 1014,3 60 0,0
04.08.2020 20:00:00 27,4 7,3 27,5 30,5 27,0 29 16 61 33 NNW 1013,4 38 0,0
04.08.2020 19:00:00 28,5 6,6 32,5 30,3 27,0 28 15 65 35 NW 1013,1 21 0,0
04.08.2020 18:00:00 28,6 6,6 34,5 30,0 27,0 33 18 61 33 NW 1013,1 20 0,0
04.08.2020 17:00:00 29,0 7,5 38,3 29,6 27,0 29 16 61 33 NW 1013,4 21 0,0
04.08.2020 16:00:00 28,7 7,8 39,7 29,2 27,0 31 17 58 31 NW 1013,8 18 0,0
04.08.2020 15:00:00 28,2 6,9 37,6 28,8 27,0 33 18 65 35 WNW 1014,0 20 0,0
04.08.2020 14:00:00 26,5 8,5 40,2 28,5 27,1 37 20 74 40 NW 1014,4 17 0,0
04.08.2020 13:00:00 26,0 9,3 41,5 28,3 27,0 35 19 67 36 NW 1015,2 29 0,0
04.08.2020 12:00:00 24,9 10,0 35,4 28,1 27,0 33 18 63 34 NW 1015,5 30 0,0
04.08.2020 11:00:00 24,0 11,0 32,0 28,2 27,1 25 13 61 33 NW 1015,9 33 0,0
04.08.2020 10:00:00 22,4 11,2 31,0 28,3 27,0 31 17 52 28 WNW 1016,5 35 0,0
04.08.2020 09:00:00 21,6 12,2 22,1 28,5 27,1 23 12 48 26 NW 1016,3 37 0,0
04.08.2020 08:00:00 20,8 12,2 19,8 28,6 27,0 31 17 52 28 NW 1016,1 19 0,0
04.08.2020 07:00:00 20,5 12,7 19,5 28,8 27,0 28 15 48 26 NW 1015,8 48 0,0
04.08.2020 06:00:00 20,6 13,5 19,3 29,0 27,0 24 13 43 23 NW 1015,4 60 0,0
04.08.2020 05:00:00 21,0 13,2 19,7 29,2 27,0 21 12 35 19 WNW 1015,1 60 0,0
04.08.2020 04:00:00 21,7 13,1 20,4 29,5 27,1 14 7 32 17 WNW 1015,5 60 0,0
04.08.2020 03:00:00 22,2 13,0 20,6 29,6 27,0 22 12 45 24 NW 1015,8 60 0,0
04.08.2020 02:00:00 22,5 12,7 21,0 29,9 27,1 28 15 52 28 WNW 1015,9 60 0,0
04.08.2020 01:00:00 23,1 12,7 22,1 30,1 27,0 26 14 47 26 WNW 1015,8 60 0,0
04.08.2020 00:00:00 23,8 11,5 22,4 30,3 27,0 26 14 53 29 WNW 1015,2 60 0,0
03.08.2020 23:00:00 24,2 10,8 22,7 30,5 27,1 28 15 59 32 NW 1014,7 60 0,0
03.08.2020 22:00:00 24,7 10,2 23,3 30,6 27,0 40 21 68 37 NW 1013,5 60 0,0
03.08.2020 21:00:00 25,1 9,4 24,3 30,7 27,1 41 22 78 42 NW 1012,2 19 0,0
03.08.2020 20:00:00 26,3 9,2 26,6 30,7 27,1 28 15 87 47 NW 1011,9 25 0,0
03.08.2020 19:00:00 27,0 8,4 30,7 30,5 27,0 32 18 71 38 NW 1011,5 30 0,0
03.08.2020 18:00:00 27,9 8,7 33,8 30,3 27,1 26 14 80 43 NW 1011,9 32 0,0
03.08.2020 17:00:00 27,6 8,5 30,1 29,9 27,0 43 23 76 41 WNW 1011,0 12 0,0
03.08.2020 16:00:00 28,4 8,6 39,5 29,5 27,1 23 13 56 30 NW 1012,4 20 0,0
03.08.2020 15:00:00 26,9 8,3 36,2 29,2 27,0 33 18 66 36 NW 1013,1 33 0,0
03.08.2020 14:00:00 26,5 9,4 39,0 29,0 27,0 31 17 54 29 NW 1013,8 17 0,0
03.08.2020 13:00:00 25,0 9,7 29,4 28,8 27,0 25 14 55 30 WNW 1014,7 48 0,0
03.08.2020 12:00:00 24,8 9,1 39,9 28,8 27,0 39 21 70 38 NW 1014,3 20 0,0
03.08.2020 11:00:00 23,1 10,2 27,3 28,9 27,0 20 11 49 26 NW 1015,0 46 0,0
03.08.2020 10:00:00 20,9 8,8 23,3 29,0 27,0 6 4 39 21 NW 1015,4 60 0,0
03.08.2020 09:00:00 20,6 9,5 21,8 29,2 27,1 13 7 29 15 WNW 1015,7 57 0,0
03.08.2020 08:00:00 20,6 10,7 20,0 29,4 27,1 13 7 30 16 WNW 1015,3 60 0,0
03.08.2020 07:00:00 20,6 10,7 20,0 29,6 27,0 14 8 42 23 WNW 1014,7 60 0,0
03.08.2020 06:00:00 21,0 11,3 20,7 29,8 27,0 28 15 59 32 WNW 1014,6 60 0,0
03.08.2020 05:00:00 21,4 12,3 21,1 30,1 27,1 33 18 57 31 WNW 1014,1 60 0,0
03.08.2020 04:00:00 22,0 12,3 22,0 30,3 27,0 34 18 59 32 NW 1014,1 60 0,0
03.08.2020 03:00:00 22,6 12,8 22,6 30,5 27,1 38 20 69 37 WNW 1014,6 60 0,0
03.08.2020 02:00:00 23,1 12,7 23,0 30,7 27,0 34 18 62 33 WNW 1014,8 60 0,0
03.08.2020 01:00:00 23,6 12,6 23,1 30,9 27,0 29 15 59 32 WNW 1015,1 60 0,0
03.08.2020 00:00:00 23,8 12,7 23,7 31,2 27,0 29 16 56 30 NW 1015,0 60 0,0
02.08.2020 23:00:00 23,7 13,0 23,8 31,4 27,0 31 17 57 31 NW 1015,1 60 0,0
02.08.2020 22:00:00 24,0 13,5 24,1 31,5 27,0 29 16 51 28 WNW 1015,0 60 0,0
02.08.2020 21:00:00 24,4 13,9 24,8 31,6 27,0 32 17 53 29 WNW 1014,4 60 0,0
02.08.2020 20:00:00 24,9 14,4 26,3 31,6 27,0 29 16 48 26 WNW 1014,3 52 0,0
02.08.2020 19:00:00 26,1 14,2 28,3 31,5 27,0 30 16 51 28 WNW 1014,5 53 0,0
02.08.2020 18:00:00 27,9 13,8 34,8 31,2 27,0 28 15 51 27 WNW 1014,2 30 0,0
02.08.2020 17:00:00 27,8 14,1 36,4 31,0 27,0 30 16 66 36 WNW 1014,6 25 0,0
02.08.2020 16:00:00 28,8 14,6 34,7 30,7 27,0 41 22 61 33 WNW 1015,0 31 0,0
02.08.2020 15:00:00 27,2 14,6 35,1 30,4 27,0 29 15 61 33 WNW 1015,3 30 0,0
02.08.2020 14:00:00 27,9 14,9 40,0 30,0 27,0 37 20 64 35 WNW 1015,5 30 0,0
02.08.2020 13:00:00 27,9 14,5 43,9 29,8 27,0 27 15 53 29 NW 1015,8 37 0,0
02.08.2020 12:00:00 27,6 14,2 42,2 29,7 26,9 26 14 54 29 NW 1016,0 38 0,0
02.08.2020 11:00:00 26,1 13,9 40,8 29,7 27,0 32 17 54 29 NW 1016,2 35 0,0
02.08.2020 10:00:00 25,6 14,4 34,0 29,8 26,9 23 12 49 26 WNW 1016,2 43 0,0
02.08.2020 09:00:00 25,0 15,6 25,9 30,0 27,0 26 14 48 26 WNW 1015,9 49 0,0
02.08.2020 08:00:00 24,3 16,8 22,7 30,2 26,9 19 11 38 21 WNW 1016,0 47 0,0
02.08.2020 07:00:00 23,8 16,8 22,1 30,4 26,9 20 11 42 23 WNW 1015,7 59 0,0
02.08.2020 06:00:00 23,9 17,2 22,3 30,6 26,9 19 10 49 27 NW 1015,3 60 0,0
02.08.2020 05:00:00 24,1 17,3 22,6 30,9 26,9 29 16 54 29 NW 1014,7 60 0,0
02.08.2020 04:00:00 24,0 17,0 22,6 31,2 26,9 21 12 46 25 WNW 1015,0 60 0,0
02.08.2020 03:00:00 24,5 16,7 22,9 31,4 26,9 21 11 52 28 WNW 1015,3 60 0,0
02.08.2020 02:00:00 25,1 16,8 23,6 31,7 26,9 24 13 47 25 WNW 1015,7 60 0,0
02.08.2020 01:00:00 25,6 16,7 24,6 31,9 26,9 29 16 59 32 NW 1015,8 60 0,0
02.08.2020 00:00:00 26,0 16,5 25,0 32,2 26,9 30 16 55 30 WNW 1016,0 60 0,0
01.08.2020 23:00:00 26,4 16,6 24,4 32,5 26,9 26 14 61 33 WNW 1016,7 60 0,0
01.08.2020 22:00:00 26,0 17,4 21,6 32,7 26,9 21 12 50 27 WNW 1016,0 60 0,0
01.08.2020 21:00:00 24,4 18,8 21,9 32,9 26,9 24 13 61 33 WNW 1015,3 20 0,0
01.08.2020 20:00:00 27,0 18,0 27,7 33,0 26,9 32 17 59 32 WNW 1014,1 30 0,0
01.08.2020 19:00:00 26,6 19,2 23,9 33,0 26,9 32 17 70 38 WNW 1014,0 35 0,0
01.08.2020 18:00:00 26,5 19,4 27,6 32,7 26,9 40 22 67 36 WNW 1014,1 44 0,0
01.08.2020 17:00:00 29,4 19,1 34,0 32,2 26,9 30 16 61 33 NW 1013,6 19 0,0
01.08.2020 16:00:00 37,0 20,3 44,4 31,7 26,8 6 3 29 16 E 1012,9 19 0,0
01.08.2020 15:00:00 36,4 20,2 43,0 31,1 26,8 16 9 29 16 ESE 1012,7 20 0,0
01.08.2020 14:00:00 36,2 21,2 45,7 30,6 26,9 14 7 26 14 E 1013,2 32 0,0
01.08.2020 13:00:00 35,7 21,6 45,7 30,3 26,8 16 8 30 16 E 1013,7 31 0,0
01.08.2020 12:00:00 36,6 19,5 49,3 30,0 26,8 6 3 15 8 SSW 1014,2 4,2 0,0
01.08.2020 11:00:00 34,1 20,1 52,0 30,0 26,9 6 3 20 11 N 1014,3 20 0,0
01.08.2020 10:00:00 31,5 20,1 42,6 30,1 26,8 11 6 21 12 NW 1014,7 13 0,0
01.08.2020 09:00:00 29,7 20,6 28,3 30,2 26,8 11 6 22 12 WNW 1015,0 49 0,0
01.08.2020 08:00:00 27,5 21,3 21,5 30,4 26,8 7 4 12 7 W 1014,8 35 0,0
01.08.2020 07:00:00 24,8 20,3 20,7 30,6 26,8 8 4 11 6 WSW 1014,9 33 0,0
01.08.2020 06:00:00 24,1 20,6 21,2 30,9 26,8 8 4 16 9 WSW 1014,8 32 0,0
01.08.2020 05:00:00 24,5 22,2 20,9 31,1 26,8 11 6 14 8 SW 1014,8 20 0,0
01.08.2020 04:00:00 24,1 22,0 21,5 31,3 26,8 4 2 11 6 S 1014,9 20 0,0
01.08.2020 03:00:00 24,3 22,0 21,5 31,5 26,8 4 2 10 5 SSW 1015,0 23 0,0

tt = temperature
td = dewpoint
tt 5cm = temperature 5cm
tt -20cm = temperature -20cm
tt -100cm = temperature -100cm
ff = wind speed
fx = gusts
dd = wind direction
ppp = reduced air pressure
vv = visibility
rr = precipitation

Next stations